This demonstration page uses our WeatherBlox Daily Observations layout. Learn more.

Left ArrowRight Arrow

53.62937, 11.41316

Hourly Observations for October 5, 2019

Temp ( °F °C ) Dew Point ( °F °C ) Humidity (%) Winds ( mph kmh ) Pressure ( in mb ) Visibility ( mi km ) Precip ( " mm )
6:50 am 06:50 Mostly Clear 43 6 43 6 100 100 VRB 2 4 29.89 1012 30 48 N/A
7:20 am 07:20 Mostly Clear 43 6 41 5 93 93 VRB 1 2 29.89 1012 30 48 N/A
7:50 am 07:50 Partly Cloudy 41 5 41 5 100 100 VRB 1 2 29.89 1012 30 48 N/A
8:20 am 08:20 Partly Cloudy 45 7 45 7 100 100 VRB 1 2 29.92 1013 30 48 N/A
8:50 am 08:50 Partly Cloudy 50 10 46 8 88 88 N 6 9 29.94 1014 30 48 N/A
9:20 am 09:20 Partly Cloudy 50 10 45 7 82 82 NE 5 7 29.94 1014 30 48 N/A
9:50 am 09:50 Partly Cloudy 50 10 45 7 82 82 ENE 5 7 29.97 1015 30 48 N/A
10:20 am 10:20 Partly Cloudy 52 11 45 7 77 77 NNE 7 11 29.97 1015 30 48 N/A
10:50 am 10:50 Partly Cloudy with Showers Nearby 52 11 43 6 72 72 NE 8 13 30.00 1016 30 48 N/A
11:20 am 11:20 Partly Cloudy with Light Showers 50 10 43 6 76 76 NNE 13 20 30.00 1016 30 48 N/A
11:50 am 11:50 Partly Cloudy with Showers Nearby 48 9 45 7 87 87 NNE 9 15 30.03 1017 30 48 N/A
12:20 pm 12:20 Mostly Sunny 50 10 46 8 88 88 NNE 10 17 30.03 1017 30 48 N/A
12:50 pm 12:50 Partly Cloudy 52 11 46 8 82 82 NNE 10 17 30.03 1017 30 48 N/A
1:20 pm 13:20 Partly Cloudy 54 12 46 8 77 77 NNE 8 13 30.03 1017 30 48 N/A
1:50 pm 13:50 Partly Cloudy 52 11 45 7 77 77 NNE 9 15 30.03 1017 30 48 N/A
2:20 pm 14:20 Partly Cloudy with Showers Nearby 54 12 45 7 72 72 NE 10 17 30.06 1018 30 48 N/A
2:50 pm 14:50 Partly Cloudy 54 12 43 6 67 67 NNE 10 17 30.06 1018 30 48 N/A
3:20 pm 15:20 Mostly Cloudy 52 11 45 7 77 77 NE 10 17 30.06 1018 30 48 N/A
3:50 pm 15:50 Mostly Cloudy 50 10 45 7 82 82 NNE 12 19 30.09 1019 30 48 N/A
4:20 pm 16:20 Mostly Cloudy with Light Rain 50 10 45 7 82 82 NE 13 20 30.09 1019 30 48 N/A
4:50 pm 16:50 Mostly Cloudy 50 10 45 7 82 82 NE 12 19 30.09 1019 30 48 N/A
5:20 pm 17:20 Mostly Cloudy 50 10 45 7 82 82 NE 9 15 30.09 1019 30 48 N/A
5:50 pm 17:50 Mostly Cloudy 50 10 43 6 76 76 NE 9 15 30.12 1020 30 48 N/A
6:20 pm 18:20 Mostly Sunny 48 9 43 6 82 82 NE 9 15 30.12 1020 7 11 N/A
6:50 pm 18:50 Mostly Cloudy 48 9 43 6 82 82 NE 8 13 30.12 1020 30 48 N/A
7:20 pm 19:20 Mostly Clear 46 8 41 5 82 82 NNE 6 9 30.12 1020 7 11 N/A
7:50 pm 19:50 Mostly Clear 45 7 41 5 87 87 NNE 3 6 30.15 1021 7 11 N/A
8:20 pm 20:20 Mostly Clear 45 7 41 5 87 87 ENE 3 6 30.15 1021 7 11 N/A
8:50 pm 20:50 Mostly Clear 45 7 43 6 93 93 E 3 6 30.15 1021 7 11 N/A

Powered by AerisWeather